Time,TemperatureF,DewpointF,PressureIn,WindDirection,WindDirectionDegrees,WindSpeedMPH,WindSpeedGustMPH,Humidity,HourlyPrecipIn,Conditions,Clouds,dailyrainin,SolarRadiationWatts/m^2,SoftwareType,DateUTC
2013-04-18 00:02:00,62.6,60.3,30.11,North,5,0.0,0.0,92,0.00,,,0.00,0.0,meteohub,2013-04-18 04:02:00,
2013-04-18 00:06:00,62.4,60.1,30.11,North,5,0.0,0.0,92,0.00,,,0.00,0.0,meteohub,2013-04-18 04:06:00,
2013-04-18 00:09:00,62.4,60.1,30.11,North,5,0.0,0.0,92,0.00,,,0.00,0.0,meteohub,2013-04-18 04:09:00,
2013-04-18 00:15:00,62.4,60.1,30.11,North,5,0.0,0.0,92,0.00,,,0.00,0.0,meteohub,2013-04-18 04:15:00,
2013-04-18 00:21:00,62.2,59.9,30.11,North,5,0.0,0.0,92,0.00,,,0.00,0.0,meteohub,2013-04-18 04:21:00,
2013-04-18 00:27:00,62.2,59.9,30.10,North,5,0.0,0.0,92,0.00,,,0.00,0.0,meteohub,2013-04-18 04:27:00,
2013-04-18 00:32:00,62.2,59.9,30.10,North,5,0.0,0.0,92,0.00,,,0.00,0.0,meteohub,2013-04-18 04:32:00,
2013-04-18 00:37:00,62.2,60.3,30.10,North,5,0.0,0.0,93,0.00,,,0.00,0.0,meteohub,2013-04-18 04:37:00,
2013-04-18 00:42:00,62.1,60.1,30.10,North,5,0.0,0.0,93,0.00,,,0.00,0.0,meteohub,2013-04-18 04:42:00,
2013-04-18 00:49:00,62.1,60.1,30.09,North,5,0.0,0.0,93,0.00,,,0.00,0.0,meteohub,2013-04-18 04:49:00,
2013-04-18 00:55:00,61.9,59.9,30.09,North,5,0.0,0.0,93,0.00,,,0.00,0.0,meteohub,2013-04-18 04:55:00,
2013-04-18 01:01:00,61.9,59.9,30.09,North,5,0.0,0.0,93,0.00,,,0.00,0.0,meteohub,2013-04-18 05:01:00,
2013-04-18 01:07:00,61.9,59.9,30.09,North,5,0.0,0.0,93,0.00,,,0.00,0.0,meteohub,2013-04-18 05:07:00,
2013-04-18 01:12:00,61.7,59.7,30.09,North,5,0.0,0.0,93,0.00,,,0.00,0.0,meteohub,2013-04-18 05:12:00,
2013-04-18 01:17:00,61.7,59.7,30.09,North,5,0.0,0.0,93,0.00,,,0.00,0.0,meteohub,2013-04-18 05:17:00,
2013-04-18 01:22:00,61.7,59.7,30.09,North,5,0.0,0.0,93,0.00,,,0.00,0.0,meteohub,2013-04-18 05:22:00,
2013-04-18 01:27:00,61.5,59.5,30.08,North,5,0.0,0.0,93,0.00,,,0.00,0.0,meteohub,2013-04-18 05:27:00,
2013-04-18 01:32:00,61.5,59.5,30.08,North,5,0.0,0.0,93,0.00,,,0.00,0.0,meteohub,2013-04-18 05:32:00,
2013-04-18 01:37:00,61.7,59.9,30.08,North,5,0.0,0.0,94,0.00,,,0.00,0.0,meteohub,2013-04-18 05:37:00,
2013-04-18 01:42:00,61.5,59.5,30.08,North,5,0.0,0.0,93,0.00,,,0.00,0.0,meteohub,2013-04-18 05:42:00,
2013-04-18 01:47:00,61.5,59.7,30.08,North,5,0.0,0.0,94,0.00,,,0.00,0.0,meteohub,2013-04-18 05:47:00,
2013-04-18 01:52:00,61.5,59.7,30.08,North,5,0.0,0.0,94,0.00,,,0.00,0.0,meteohub,2013-04-18 05:52:00,
2013-04-18 01:57:00,61.5,59.7,30.08,North,5,0.0,0.0,94,0.00,,,0.00,0.0,meteohub,2013-04-18 05:57:00,
2013-04-18 02:02:00,61.7,59.9,30.08,North,5,0.0,0.0,94,0.00,,,0.00,0.0,meteohub,2013-04-18 06:02:00,
2013-04-18 02:07:00,61.7,59.9,30.07,North,5,0.0,0.0,94,0.00,,,0.00,0.0,meteohub,2013-04-18 06:07:00,
2013-04-18 02:12:00,61.7,59.9,30.07,North,5,0.0,0.0,94,0.00,,,0.00,0.0,meteohub,2013-04-18 06:12:00,
2013-04-18 02:19:00,61.9,60.1,30.06,North,5,0.0,0.0,94,0.00,,,0.00,0.0,meteohub,2013-04-18 06:19:00,
2013-04-18 02:25:00,61.9,60.1,30.06,North,5,0.0,0.0,94,0.00,,,0.00,0.0,meteohub,2013-04-18 06:25:00,
2013-04-18 02:31:00,61.7,59.9,30.06,North,5,0.0,0.0,94,0.00,,,0.00,0.0,meteohub,2013-04-18 06:31:00,
2013-04-18 02:37:00,61.7,59.9,30.06,North,5,0.0,0.0,94,0.00,,,0.00,0.0,meteohub,2013-04-18 06:37:00,
2013-04-18 02:42:00,61.9,60.4,30.05,North,5,0.0,0.0,95,0.00,,,0.00,0.0,meteohub,2013-04-18 06:42:00,
2013-04-18 02:47:00,61.9,60.4,30.05,North,5,0.0,0.0,95,0.00,,,0.00,0.0,meteohub,2013-04-18 06:47:00,
2013-04-18 02:52:00,61.9,60.4,30.05,North,5,0.0,0.0,95,0.00,,,0.00,0.0,meteohub,2013-04-18 06:52:00,
2013-04-18 02:59:00,61.9,60.4,30.05,North,5,0.0,0.0,95,0.00,,,0.00,0.0,meteohub,2013-04-18 06:59:00,
2013-04-18 03:05:00,62.1,60.6,30.05,North,5,0.0,0.0,95,0.00,,,0.00,0.0,meteohub,2013-04-18 07:05:00,
2013-04-18 03:11:00,62.2,60.8,30.05,North,5,0.0,0.0,95,0.00,,,0.00,0.0,meteohub,2013-04-18 07:11:00,
2013-04-18 03:17:00,62.4,61.0,30.05,North,5,0.0,0.0,95,0.00,,,0.00,0.0,meteohub,2013-04-18 07:17:00,
2013-04-18 03:22:00,62.4,61.0,30.06,North,5,0.0,0.0,95,0.00,,,0.00,0.0,meteohub,2013-04-18 07:22:00,
2013-04-18 03:27:00,62.4,61.0,30.05,North,5,0.0,0.0,95,0.00,,,0.00,0.0,meteohub,2013-04-18 07:27:00,
2013-04-18 03:32:00,62.4,61.0,30.06,North,5,0.0,0.0,95,0.00,,,0.00,0.0,meteohub,2013-04-18 07:32:00,
2013-04-18 03:37:00,62.4,61.0,30.06,North,5,0.0,0.0,95,0.00,,,0.00,0.0,meteohub,2013-04-18 07:37:00,
2013-04-18 03:42:00,62.4,61.0,30.06,North,5,0.0,0.0,95,0.00,,,0.00,0.0,meteohub,2013-04-18 07:42:00,
2013-04-18 03:47:00,62.4,61.0,30.06,North,5,0.0,0.0,95,0.00,,,0.00,0.0,meteohub,2013-04-18 07:47:00,
2013-04-18 03:52:00,62.6,61.2,30.06,North,5,0.0,0.0,95,0.00,,,0.00,0.0,meteohub,2013-04-18 07:52:00,
2013-04-18 03:57:00,62.8,61.3,30.06,North,5,0.0,0.0,95,0.00,,,0.00,0.0,meteohub,2013-04-18 07:57:00,
2013-04-18 04:02:00,62.8,61.3,30.05,North,5,0.0,0.0,95,0.00,,,0.00,0.0,meteohub,2013-04-18 08:02:00,
2013-04-18 04:07:00,63.0,61.9,30.05,North,5,0.0,1.0,96,0.00,,,0.00,0.0,meteohub,2013-04-18 08:07:00,
2013-04-18 04:12:00,63.0,61.9,30.05,North,5,0.0,1.0,96,0.00,,,0.00,0.0,meteohub,2013-04-18 08:12:00,
2013-04-18 04:17:00,63.1,62.1,30.04,North,5,0.0,0.0,96,0.00,,,0.00,0.0,meteohub,2013-04-18 08:17:00,
2013-04-18 04:22:00,63.1,62.1,30.05,North,5,0.0,0.0,96,0.00,,,0.00,0.0,meteohub,2013-04-18 08:22:00,
2013-04-18 04:27:00,63.1,62.1,30.04,North,5,0.0,0.0,96,0.00,,,0.00,0.0,meteohub,2013-04-18 08:27:00,
2013-04-18 04:32:00,63.1,62.1,30.04,North,5,0.0,0.0,96,0.00,,,0.00,0.0,meteohub,2013-04-18 08:32:00,
2013-04-18 04:37:00,63.1,62.1,30.04,North,5,0.0,0.0,96,0.00,,,0.00,0.0,meteohub,2013-04-18 08:37:00,
2013-04-18 04:42:00,63.1,62.1,30.03,North,5,0.0,0.0,96,0.00,,,0.00,0.0,meteohub,2013-04-18 08:42:00,
2013-04-18 04:47:00,63.0,61.9,30.03,North,5,0.0,0.0,96,0.00,,,0.00,0.0,meteohub,2013-04-18 08:47:00,
2013-04-18 04:53:00,63.0,61.9,30.03,North,5,0.0,0.0,96,0.00,,,0.00,0.0,meteohub,2013-04-18 08:53:00,
2013-04-18 04:59:00,63.0,61.9,30.03,North,5,0.0,0.0,96,0.00,,,0.00,0.0,meteohub,2013-04-18 08:59:00,
2013-04-18 05:05:00,62.8,61.7,30.03,North,5,0.0,0.0,96,0.00,,,0.00,0.0,meteohub,2013-04-18 09:05:00,
2013-04-18 05:12:00,62.6,61.5,30.03,North,5,0.0,0.0,96,0.00,,,0.00,0.0,meteohub,2013-04-18 09:12:00,
2013-04-18 05:17:00,62.6,61.5,30.03,North,5,0.0,0.0,96,0.00,,,0.00,0.0,meteohub,2013-04-18 09:17:00,
2013-04-18 05:22:00,62.4,61.3,30.03,North,5,0.0,0.0,96,0.00,,,0.00,0.0,meteohub,2013-04-18 09:22:00,
2013-04-18 05:27:00,62.4,61.3,30.03,North,5,0.0,0.0,96,0.00,,,0.00,0.0,meteohub,2013-04-18 09:27:00,
2013-04-18 05:32:00,62.2,61.2,30.03,North,5,0.0,0.0,96,0.00,,,0.00,0.0,meteohub,2013-04-18 09:32:00,
2013-04-18 05:37:00,62.2,61.2,30.03,North,5,0.0,0.0,96,0.00,,,0.00,0.0,meteohub,2013-04-18 09:37:00,
2013-04-18 05:42:00,62.1,61.0,30.03,North,5,0.0,0.0,96,0.00,,,0.00,0.0,meteohub,2013-04-18 09:42:00,
2013-04-18 05:47:00,62.1,61.0,30.03,North,5,0.0,0.0,96,0.00,,,0.00,0.0,meteohub,2013-04-18 09:47:00,
2013-04-18 05:52:00,61.9,60.8,30.03,North,5,0.0,0.0,96,0.00,,,0.00,0.0,meteohub,2013-04-18 09:52:00,
2013-04-18 05:57:00,61.7,60.6,30.04,North,5,0.0,0.0,96,0.00,,,0.00,0.0,meteohub,2013-04-18 09:57:00,
2013-04-18 06:02:00,61.5,60.4,30.04,North,5,0.0,0.0,96,0.00,,,0.00,0.0,meteohub,2013-04-18 10:02:00,
2013-04-18 06:07:00,61.5,60.4,30.04,North,5,0.0,0.0,96,0.00,,,0.00,0.0,meteohub,2013-04-18 10:07:00,
2013-04-18 06:12:00,61.3,60.3,30.04,North,5,0.0,0.0,96,0.00,,,0.00,0.0,meteohub,2013-04-18 10:12:00,
2013-04-18 06:17:00,61.2,60.1,30.04,North,5,0.0,0.0,96,0.00,,,0.00,0.0,meteohub,2013-04-18 10:17:00,
2013-04-18 06:22:00,61.2,60.1,30.04,North,5,0.0,0.0,96,0.00,,,0.00,0.0,meteohub,2013-04-18 10:22:00,
2013-04-18 06:27:00,61.2,60.1,30.04,North,5,0.0,0.0,96,0.00,,,0.00,0.0,meteohub,2013-04-18 10:27:00,
2013-04-18 06:32:00,61.0,59.9,30.04,North,5,0.0,0.0,96,0.00,,,0.00,0.0,meteohub,2013-04-18 10:32:00,
2013-04-18 06:37:00,61.0,59.9,30.04,North,5,0.0,0.0,96,0.00,,,0.00,0.0,meteohub,2013-04-18 10:37:00,
2013-04-18 06:42:00,60.8,59.7,30.05,North,5,0.0,0.0,96,0.00,,,0.00,0.0,meteohub,2013-04-18 10:42:00,
2013-04-18 06:47:00,60.6,59.5,30.05,North,5,0.0,0.0,96,0.00,,,0.00,0.0,meteohub,2013-04-18 10:47:00,
2013-04-18 06:52:00,60.6,59.5,30.05,North,5,0.0,0.0,96,0.00,,,0.00,0.0,meteohub,2013-04-18 10:52:00,
2013-04-18 06:57:00,60.4,59.4,30.06,North,5,0.0,0.0,96,0.00,,,0.00,0.0,meteohub,2013-04-18 10:57:00,
2013-04-18 07:02:00,60.4,59.4,30.06,North,5,0.0,0.0,96,0.00,,,0.00,0.0,meteohub,2013-04-18 11:02:00,
2013-04-18 07:07:00,60.3,59.2,30.06,North,5,0.0,0.0,96,0.00,,,0.00,5.0,meteohub,2013-04-18 11:07:00,
2013-04-18 07:12:00,60.3,59.2,30.06,North,5,0.0,0.0,96,0.00,,,0.00,7.0,meteohub,2013-04-18 11:12:00,
2013-04-18 07:17:00,60.3,59.2,30.06,North,5,0.0,0.0,96,0.00,,,0.00,11.0,meteohub,2013-04-18 11:17:00,
2013-04-18 07:22:00,60.3,59.2,30.07,North,5,0.0,0.0,96,0.00,,,0.00,12.0,meteohub,2013-04-18 11:22:00,
2013-04-18 07:27:00,60.3,59.2,30.07,North,5,0.0,0.0,96,0.00,,,0.00,16.0,meteohub,2013-04-18 11:27:00,
2013-04-18 07:32:00,60.3,59.2,30.07,North,5,0.0,0.0,96,0.00,,,0.00,25.0,meteohub,2013-04-18 11:32:00,
2013-04-18 07:38:00,60.3,59.2,30.07,North,5,0.0,0.0,96,0.00,,,0.00,40.0,meteohub,2013-04-18 11:38:00,
2013-04-18 07:44:00,60.3,59.2,30.07,North,5,0.0,0.0,96,0.00,,,0.00,47.0,meteohub,2013-04-18 11:44:00,
2013-04-18 07:50:00,61.0,60.1,30.07,North,5,0.0,0.0,97,0.00,,,0.00,67.0,meteohub,2013-04-18 11:50:00,
2013-04-18 07:56:00,61.9,61.0,30.07,North,9,0.0,0.0,97,0.00,,,0.00,91.0,meteohub,2013-04-18 11:56:00,
2013-04-18 08:02:00,63.0,62.1,30.07,North,9,1.0,2.0,97,0.00,,,0.00,102.0,meteohub,2013-04-18 12:02:00,
2013-04-18 08:07:00,63.7,62.8,30.07,North,9,0.0,2.0,97,0.00,,,0.00,102.0,meteohub,2013-04-18 12:07:00,
2013-04-18 08:12:00,64.0,63.1,30.08,North,9,0.0,2.0,97,0.00,,,0.00,100.0,meteohub,2013-04-18 12:12:00,
2013-04-18 08:17:00,64.2,63.3,30.08,ENE,58,0.0,2.0,97,0.00,,,0.00,102.0,meteohub,2013-04-18 12:17:00,
2013-04-18 08:22:00,64.8,63.9,30.08,ENE,58,0.0,2.0,97,0.00,,,0.00,93.0,meteohub,2013-04-18 12:22:00,
2013-04-18 08:27:00,64.8,63.9,30.08,ENE,58,0.0,2.0,97,0.00,,,0.00,100.0,meteohub,2013-04-18 12:27:00,
2013-04-18 08:32:00,64.9,64.0,30.08,ENE,58,0.0,1.0,97,0.00,,,0.00,116.0,meteohub,2013-04-18 12:32:00,
2013-04-18 08:37:00,65.3,64.4,30.08,ENE,58,0.0,1.0,97,0.00,,,0.00,79.0,meteohub,2013-04-18 12:37:00,
2013-04-18 08:42:00,65.5,64.6,30.08,ENE,58,0.0,2.0,97,0.00,,,0.00,109.0,meteohub,2013-04-18 12:42:00,
2013-04-18 08:47:00,65.8,64.9,30.08,ENE,58,0.0,2.0,97,0.00,,,0.00,132.0,meteohub,2013-04-18 12:47:00,
2013-04-18 08:52:00,66.0,65.1,30.08,ENE,58,0.0,2.0,97,0.00,,,0.00,132.0,meteohub,2013-04-18 12:52:00,
2013-04-18 08:57:00,66.6,65.7,30.08,ENE,59,0.0,1.0,97,0.00,,,0.00,100.0,meteohub,2013-04-18 12:57:00,
2013-04-18 09:02:00,66.7,65.8,30.08,ENE,59,0.0,1.0,97,0.00,,,0.00,84.0,meteohub,2013-04-18 13:02:00,
2013-04-18 09:07:00,66.7,65.8,30.08,ENE,59,0.0,1.0,97,0.00,,,0.00,83.0,meteohub,2013-04-18 13:07:00,
2013-04-18 09:12:00,67.3,66.4,30.09,ENE,59,0.0,3.0,97,0.00,,,0.00,183.0,meteohub,2013-04-18 13:12:00,
2013-04-18 09:17:00,68.2,67.3,30.09,ENE,59,0.0,3.0,97,0.00,,,0.02,149.0,meteohub,2013-04-18 13:17:00,
2013-04-18 09:22:00,68.5,67.6,30.09,ENE,59,0.0,0.0,97,0.02,,,0.02,320.0,meteohub,2013-04-18 13:22:00,
2013-04-18 09:27:00,69.1,68.2,30.08,ENE,59,0.0,0.0,97,0.02,,,0.02,227.0,meteohub,2013-04-18 13:27:00,
2013-04-18 09:32:00,69.1,68.2,30.08,ENE,59,0.0,1.0,97,0.02,,,0.02,172.0,meteohub,2013-04-18 13:32:00,
2013-04-18 09:38:00,69.8,68.9,30.09,ENE,59,0.0,1.0,97,0.02,,,0.02,533.0,meteohub,2013-04-18 13:38:00,
2013-04-18 09:45:00,70.7,69.4,30.08,ENE,59,0.0,1.0,96,0.02,,,0.02,478.0,meteohub,2013-04-18 13:45:00,
2013-04-18 09:51:00,71.2,69.4,30.08,SE,135,0.0,1.0,94,0.02,,,0.02,517.0,meteohub,2013-04-18 13:51:00,
2013-04-18 09:57:00,72.1,69.4,30.08,ENE,72,0.0,1.0,91,0.02,,,0.02,536.0,meteohub,2013-04-18 13:57:00,
2013-04-18 10:02:00,72.9,69.8,30.08,ENE,73,1.0,3.0,90,0.02,,,0.02,438.0,meteohub,2013-04-18 14:02:00,
2013-04-18 10:09:00,73.9,70.2,30.08,NNE,25,0.0,3.0,88,0.02,,,0.02,346.0,meteohub,2013-04-18 14:09:00,
2013-04-18 10:16:00,74.5,70.7,30.08,SW,230,0.0,2.0,88,0.00,,,0.02,373.0,meteohub,2013-04-18 14:16:00,
2013-04-18 10:22:00,75.4,70.5,30.08,SW,221,1.0,2.0,85,0.00,,,0.02,476.0,meteohub,2013-04-18 14:22:00,
2013-04-18 10:27:00,75.6,70.3,30.08,SSE,167,0.0,2.0,84,0.00,,,0.02,406.0,meteohub,2013-04-18 14:27:00,
2013-04-18 10:32:00,75.7,70.2,30.08,North,9,1.0,2.0,83,0.00,,,0.02,584.0,meteohub,2013-04-18 14:32:00,
2013-04-18 10:37:00,75.7,69.4,30.08,NE,53,1.0,4.0,81,0.00,,,0.02,125.0,meteohub,2013-04-18 14:37:00,
2013-04-18 10:42:00,75.4,69.1,30.08,South,173,1.0,4.0,81,0.00,,,0.02,142.0,meteohub,2013-04-18 14:42:00,
2013-04-18 10:47:00,75.4,69.1,30.08,South,173,0.0,4.0,81,0.00,,,0.02,0.0,meteohub,2013-04-18 14:47:00,
2013-04-18 10:52:00,75.2,68.9,30.08,South,173,0.0,4.0,81,0.00,,,0.02,135.0,meteohub,2013-04-18 14:52:00,
2013-04-18 10:57:00,75.6,69.6,30.08,South,173,0.0,4.0,82,0.00,,,0.02,28.0,meteohub,2013-04-18 14:57:00,
2013-04-18 11:02:00,75.6,70.0,30.08,South,173,0.0,4.0,83,0.00,,,0.02,162.0,meteohub,2013-04-18 15:02:00,
2013-04-18 11:07:00,76.5,70.5,30.08,SSE,157,1.0,3.0,82,0.00,,,0.02,137.0,meteohub,2013-04-18 15:07:00,
2013-04-18 11:14:00,77.2,69.8,30.08,SSE,168,0.0,7.0,78,0.00,,,0.02,111.0,meteohub,2013-04-18 15:14:00,
2013-04-18 11:20:00,77.2,69.4,30.07,East,82,4.0,7.0,77,0.00,,,0.02,0.0,meteohub,2013-04-18 15:20:00,
2013-04-18 11:27:00,76.5,69.8,30.08,ENE,69,0.0,4.0,80,0.00,,,0.02,0.0,meteohub,2013-04-18 15:27:00,
2013-04-18 11:32:00,75.9,69.6,30.08,ENE,69,0.0,4.0,81,0.00,,,0.02,0.0,meteohub,2013-04-18 15:32:00,
2013-04-18 11:37:00,75.2,70.0,30.07,East,92,0.0,4.0,84,0.00,,,0.02,134.0,meteohub,2013-04-18 15:37:00,
2013-04-18 11:42:00,75.9,70.7,30.08,East,91,0.0,4.0,84,0.00,,,0.02,758.0,meteohub,2013-04-18 15:42:00,
2013-04-18 11:48:00,76.8,70.2,30.07,East,88,1.0,3.0,80,0.00,,,0.02,23.0,meteohub,2013-04-18 15:48:00,
2013-04-18 11:54:00,76.5,69.4,30.07,ESE,115,0.0,3.0,79,0.00,,,0.02,47.0,meteohub,2013-04-18 15:54:00,
2013-04-18 12:00:00,77.2,70.5,30.06,East,96,0.0,3.0,80,0.00,,,0.02,134.0,meteohub,2013-04-18 16:00:00,
2013-04-18 12:07:00,77.5,70.9,30.06,East,96,0.0,3.0,80,0.00,,,0.02,891.0,meteohub,2013-04-18 16:07:00,
2013-04-18 12:12:00,79.2,70.9,30.06,NE,36,0.0,3.0,76,0.00,,,0.02,877.0,meteohub,2013-04-18 16:12:00,
2013-04-18 12:17:00,79.5,70.5,30.06,SE,130,1.0,4.0,74,0.00,,,0.02,151.0,meteohub,2013-04-18 16:17:00,
2013-04-18 12:22:00,78.6,70.3,30.06,SSE,163,0.0,4.0,76,0.00,,,0.02,171.0,meteohub,2013-04-18 16:22:00,
2013-04-18 12:27:00,78.4,69.8,30.06,NNE,30,0.0,5.0,75,0.00,,,0.02,137.0,meteohub,2013-04-18 16:27:00,
2013-04-18 12:32:00,78.1,70.0,30.06,SW,235,0.0,5.0,76,0.00,,,0.02,88.0,meteohub,2013-04-18 16:32:00,
2013-04-18 12:37:00,77.7,69.6,30.06,SW,223,1.0,5.0,76,0.00,,,0.02,130.0,meteohub,2013-04-18 16:37:00,
2013-04-18 12:42:00,78.3,69.6,30.05,SSW,213,0.0,6.0,75,0.00,,,0.02,230.0,meteohub,2013-04-18 16:42:00,
2013-04-18 12:47:00,79.2,70.2,30.05,ENE,67,0.0,6.0,74,0.00,,,0.02,158.0,meteohub,2013-04-18 16:47:00,
2013-04-18 12:52:00,79.7,70.7,30.05,West,273,1.0,5.0,74,0.00,,,0.02,54.0,meteohub,2013-04-18 16:52:00,
2013-04-18 12:57:00,79.5,70.5,30.05,NNW,339,0.0,5.0,74,0.00,,,0.02,234.0,meteohub,2013-04-18 16:57:00,
2013-04-18 13:02:00,80.1,70.7,30.05,WSW,240,2.0,5.0,73,0.00,,,0.02,216.0,meteohub,2013-04-18 17:02:00,
2013-04-18 13:08:00,81.7,70.9,30.04,South,184,0.0,4.0,70,0.00,,,0.02,902.0,meteohub,2013-04-18 17:08:00,
2013-04-18 13:15:00,81.5,70.3,30.04,NE,45,2.0,5.0,69,0.00,,,0.02,960.0,meteohub,2013-04-18 17:15:00,
2013-04-18 13:22:00,81.9,70.7,30.04,ENE,61,1.0,5.0,69,0.00,,,0.02,445.0,meteohub,2013-04-18 17:22:00,
2013-04-18 13:27:00,81.5,70.0,30.04,ENE,58,2.0,6.0,68,0.00,,,0.02,861.0,meteohub,2013-04-18 17:27:00,
2013-04-18 13:33:00,81.7,69.6,30.04,ENE,67,2.0,6.0,67,0.00,,,0.02,935.0,meteohub,2013-04-18 17:33:00,
2013-04-18 13:39:00,82.0,71.2,30.04,SSW,196,3.0,6.0,70,0.00,,,0.02,287.0,meteohub,2013-04-18 17:39:00,
2013-04-18 13:46:00,82.0,70.3,30.03,NE,56,1.0,5.0,68,0.00,,,0.02,1025.0,meteohub,2013-04-18 17:46:00,
2013-04-18 13:52:00,82.9,70.9,30.03,NE,44,1.0,5.0,67,0.00,,,0.02,889.0,meteohub,2013-04-18 17:52:00,
2013-04-18 13:57:00,83.7,69.3,30.03,SW,216,3.0,6.0,62,0.00,,,0.02,925.0,meteohub,2013-04-18 17:57:00,
2013-04-18 14:02:00,82.8,69.8,30.03,North,11,2.0,6.0,65,0.00,,,0.02,134.0,meteohub,2013-04-18 18:02:00,
2013-04-18 14:07:00,81.3,69.3,30.03,ENE,74,3.0,6.0,67,0.00,,,0.02,248.0,meteohub,2013-04-18 18:07:00,
2013-04-18 14:12:00,81.0,69.4,30.03,SSW,202,0.0,6.0,68,0.00,,,0.02,225.0,meteohub,2013-04-18 18:12:00,
2013-04-18 14:17:00,80.6,69.4,30.02,East,80,0.0,6.0,69,0.00,,,0.02,179.0,meteohub,2013-04-18 18:17:00,
2013-04-18 14:22:00,81.7,69.3,30.02,East,82,0.0,6.0,66,0.00,,,0.02,98.0,meteohub,2013-04-18 18:22:00,
2013-04-18 14:27:00,81.3,68.4,30.02,South,174,0.0,4.0,65,0.00,,,0.02,258.0,meteohub,2013-04-18 18:27:00,
2013-04-18 14:32:00,81.9,69.8,30.01,ENE,75,2.0,4.0,67,0.00,,,0.02,234.0,meteohub,2013-04-18 18:32:00,
2013-04-18 14:37:00,81.5,70.3,30.01,NNW,336,0.0,6.0,69,0.00,,,0.02,232.0,meteohub,2013-04-18 18:37:00,
2013-04-18 14:42:00,82.0,70.0,30.01,NE,56,0.0,6.0,67,0.00,,,0.02,301.0,meteohub,2013-04-18 18:42:00,
2013-04-18 14:47:00,82.2,69.3,30.01,ENE,74,0.0,5.0,65,0.00,,,0.02,192.0,meteohub,2013-04-18 18:47:00,
2013-04-18 14:52:00,81.9,68.9,30.00,ENE,61,1.0,5.0,65,0.00,,,0.02,255.0,meteohub,2013-04-18 18:52:00,
2013-04-18 14:57:00,81.3,68.4,30.00,NE,47,1.0,7.0,65,0.00,,,0.02,142.0,meteohub,2013-04-18 18:57:00,
2013-04-18 15:02:00,81.5,68.5,30.00,SSE,157,0.0,7.0,65,0.00,,,0.02,279.0,meteohub,2013-04-18 19:02:00,
2013-04-18 15:07:00,83.5,70.5,30.00,SSE,161,3.0,7.0,65,0.00,,,0.02,905.0,meteohub,2013-04-18 19:07:00,
2013-04-18 15:12:00,84.6,69.6,30.00,SSW,196,2.0,7.0,61,0.00,,,0.02,877.0,meteohub,2013-04-18 19:12:00,
2013-04-18 15:17:00,84.4,70.9,30.00,SSE,167,4.0,4.0,64,0.00,,,0.02,930.0,meteohub,2013-04-18 19:17:00,
2013-04-18 15:22:00,83.8,70.3,30.00,SSE,150,0.0,4.0,64,0.00,,,0.02,902.0,meteohub,2013-04-18 19:22:00,
2013-04-18 15:27:00,84.6,70.2,30.00,East,97,4.0,6.0,62,0.00,,,0.02,192.0,meteohub,2013-04-18 19:27:00,
2013-04-18 15:32:00,83.5,70.0,30.00,SSW,200,4.0,6.0,64,0.00,,,0.02,431.0,meteohub,2013-04-18 19:32:00,
2013-04-18 15:37:00,84.0,70.5,29.99,SSE,155,1.0,7.0,64,0.00,,,0.02,431.0,meteohub,2013-04-18 19:37:00,
2013-04-18 15:43:00,84.6,70.2,29.99,SSE,156,0.0,7.0,62,0.00,,,0.02,858.0,meteohub,2013-04-18 19:43:00,
2013-04-18 15:49:00,84.9,69.4,29.99,SE,141,2.0,7.0,60,0.00,,,0.02,793.0,meteohub,2013-04-18 19:49:00,
2013-04-18 15:56:00,84.2,69.8,29.99,ENE,75,1.0,8.0,62,0.00,,,0.02,724.0,meteohub,2013-04-18 19:56:00,
2013-04-18 16:02:00,83.7,69.8,29.99,ENE,76,1.0,8.0,63,0.00,,,0.02,671.0,meteohub,2013-04-18 20:02:00,
2013-04-18 16:07:00,84.2,69.3,29.99,East,86,0.0,7.0,61,0.00,,,0.02,227.0,meteohub,2013-04-18 20:07:00,
2013-04-18 16:12:00,83.8,69.4,29.99,ENE,67,1.0,7.0,62,0.00,,,0.02,399.0,meteohub,2013-04-18 20:12:00,
2013-04-18 16:17:00,84.0,70.0,29.99,NNE,33,7.0,9.0,63,0.00,,,0.02,737.0,meteohub,2013-04-18 20:17:00,
2013-04-18 16:23:00,83.5,69.6,29.99,ENE,78,2.0,9.0,63,0.00,,,0.02,754.0,meteohub,2013-04-18 20:23:00,
2013-04-18 16:30:00,83.3,68.9,29.99,South,182,1.0,7.0,62,0.00,,,0.02,237.0,meteohub,2013-04-18 20:30:00,
2013-04-18 16:36:00,83.7,70.7,29.98,NE,51,2.0,6.0,65,0.00,,,0.02,670.0,meteohub,2013-04-18 20:36:00,
2013-04-18 16:42:00,83.1,70.2,29.98,SSE,150,1.0,6.0,65,0.00,,,0.02,712.0,meteohub,2013-04-18 20:42:00,
2013-04-18 16:47:00,83.1,70.5,29.98,ESE,109,1.0,7.0,66,0.00,,,0.02,578.0,meteohub,2013-04-18 20:47:00,
2013-04-18 16:52:00,83.3,68.9,29.98,ENE,75,2.0,7.0,62,0.00,,,0.02,608.0,meteohub,2013-04-18 20:52:00,
2013-04-18 16:57:00,82.9,69.1,29.98,NE,38,1.0,7.0,63,0.00,,,0.02,638.0,meteohub,2013-04-18 20:57:00,
2013-04-18 17:02:00,82.9,69.1,29.98,ENE,78,1.0,7.0,63,0.00,,,0.02,100.0,meteohub,2013-04-18 21:02:00,
2013-04-18 17:07:00,82.0,68.7,29.98,SSE,166,1.0,5.0,64,0.00,,,0.02,570.0,meteohub,2013-04-18 21:07:00,
2013-04-18 17:12:00,82.2,69.8,29.97,SSE,153,7.0,7.0,66,0.00,,,0.02,555.0,meteohub,2013-04-18 21:12:00,
2013-04-18 17:17:00,82.4,69.4,29.97,SSE,157,0.0,7.0,65,0.00,,,0.02,545.0,meteohub,2013-04-18 21:17:00,
2013-04-18 17:22:00,82.2,68.9,29.97,ENE,69,0.0,7.0,64,0.00,,,0.02,469.0,meteohub,2013-04-18 21:22:00,
2013-04-18 17:27:00,82.0,68.2,29.97,NE,45,0.0,7.0,63,0.00,,,0.02,151.0,meteohub,2013-04-18 21:27:00,
2013-04-18 17:32:00,81.7,68.4,29.96,NE,53,0.0,7.0,64,0.00,,,0.02,427.0,meteohub,2013-04-18 21:32:00,
2013-04-18 17:37:00,81.9,68.0,29.96,ENE,58,0.0,4.0,63,0.00,,,0.02,320.0,meteohub,2013-04-18 21:37:00,
2013-04-18 17:44:00,82.0,69.1,29.97,ESE,110,1.0,4.0,65,0.00,,,0.02,357.0,meteohub,2013-04-18 21:44:00,
2013-04-18 17:50:00,81.9,68.9,29.96,South,183,4.0,4.0,65,0.00,,,0.02,325.0,meteohub,2013-04-18 21:50:00,
2013-04-18 17:56:00,81.5,68.2,29.96,ENE,67,2.0,9.0,64,0.00,,,0.02,156.0,meteohub,2013-04-18 21:56:00,
2013-04-18 18:02:00,81.1,67.8,29.96,NE,46,0.0,9.0,64,0.00,,,0.02,49.0,meteohub,2013-04-18 22:02:00,
2013-04-18 18:07:00,80.8,68.0,29.97,ESE,121,2.0,9.0,65,0.00,,,0.02,33.0,meteohub,2013-04-18 22:07:00,
2013-04-18 18:12:00,80.4,67.6,29.97,East,87,0.0,9.0,65,0.00,,,0.02,28.0,meteohub,2013-04-18 22:12:00,
2013-04-18 18:17:00,80.1,67.6,29.97,NNE,28,0.0,10.0,66,0.00,,,0.02,53.0,meteohub,2013-04-18 22:17:00,
2013-04-18 18:22:00,79.5,67.6,29.97,ENE,70,0.0,10.0,67,0.00,,,0.02,26.0,meteohub,2013-04-18 22:22:00,
2013-04-18 18:27:00,79.2,67.6,29.97,ENE,70,0.0,10.0,68,0.00,,,0.02,21.0,meteohub,2013-04-18 22:27:00,
2013-04-18 18:32:00,79.0,68.0,29.97,ENE,70,0.0,3.0,69,0.00,,,0.02,11.0,meteohub,2013-04-18 22:32:00,
2013-04-18 18:37:00,78.6,67.6,29.97,ENE,71,0.0,3.0,69,0.00,,,0.02,0.0,meteohub,2013-04-18 22:37:00,
2013-04-18 18:42:00,78.4,67.8,29.97,NE,45,0.0,3.0,70,0.00,,,0.02,0.0,meteohub,2013-04-18 22:42:00,
2013-04-18 18:49:00,78.1,67.5,29.97,ENE,58,0.0,5.0,70,0.00,,,0.02,0.0,meteohub,2013-04-18 22:49:00,
2013-04-18 18:55:00,77.5,67.5,29.97,ENE,58,0.0,5.0,71,0.00,,,0.02,0.0,meteohub,2013-04-18 22:55:00,
2013-04-18 19:01:00,77.4,67.3,29.98,ENE,59,0.0,5.0,71,0.00,,,0.02,0.0,meteohub,2013-04-18 23:01:00,
2013-04-18 19:07:00,77.0,67.3,29.97,ENE,59,0.0,3.0,72,0.00,,,0.02,0.0,meteohub,2013-04-18 23:07:00,
2013-04-18 19:12:00,76.6,66.9,29.98,SSW,192,0.0,3.0,72,0.00,,,0.02,0.0,meteohub,2013-04-18 23:12:00,
2013-04-18 19:17:00,76.5,67.1,29.97,South,185,0.0,3.0,73,0.00,,,0.02,40.0,meteohub,2013-04-18 23:17:00,
2013-04-18 19:22:00,76.3,67.5,29.97,SSE,154,0.0,3.0,74,0.00,,,0.02,37.0,meteohub,2013-04-18 23:22:00,
2013-04-18 19:27:00,75.9,67.1,29.97,NE,50,0.0,3.0,74,0.00,,,0.02,28.0,meteohub,2013-04-18 23:27:00,
2013-04-18 19:32:00,75.6,67.1,29.97,NE,50,0.0,3.0,75,0.00,,,0.02,21.0,meteohub,2013-04-18 23:32:00,
2013-04-18 19:37:00,75.4,66.9,29.97,SSW,205,0.0,3.0,75,0.00,,,0.02,18.0,meteohub,2013-04-18 23:37:00,
2013-04-18 19:42:00,75.0,66.9,29.98,SSW,204,0.0,3.0,76,0.00,,,0.02,16.0,meteohub,2013-04-18 23:42:00,
2013-04-18 19:47:00,74.8,66.7,29.97,SSW,201,0.0,1.0,76,0.00,,,0.02,14.0,meteohub,2013-04-18 23:47:00,
2013-04-18 19:52:00,74.8,67.1,29.98,SSW,201,0.0,1.0,77,0.00,,,0.02,5.0,meteohub,2013-04-18 23:52:00,
2013-04-18 19:57:00,74.7,66.9,29.98,SSW,201,0.0,1.0,77,0.00,,,0.02,0.0,meteohub,2013-04-18 23:57:00,
2013-04-18 20:02:00,74.3,66.9,29.98,SSW,201,0.0,1.0,78,0.00,,,0.02,0.0,meteohub,2013-04-19 00:02:00,
2013-04-18 20:07:00,74.1,66.7,29.98,SSW,201,0.0,1.0,78,0.00,,,0.02,0.0,meteohub,2013-04-19 00:07:00,
2013-04-18 20:12:00,73.9,67.1,29.98,SSW,201,0.0,1.0,79,0.00,,,0.00,0.0,meteohub,2013-04-19 00:12:00,
2013-04-18 20:17:00,73.6,67.1,29.98,East,80,0.0,1.0,80,0.00,,,0.00,0.0,meteohub,2013-04-19 00:17:00,
2013-04-18 20:22:00,73.4,66.9,29.98,East,80,0.0,1.0,80,0.00,,,0.00,0.0,meteohub,2013-04-19 00:22:00,
2013-04-18 20:27:00,73.2,66.7,29.98,East,82,0.0,2.0,80,0.00,,,0.00,0.0,meteohub,2013-04-19 00:27:00,
2013-04-18 20:32:00,73.0,66.9,29.98,East,81,0.0,2.0,81,0.00,,,0.00,0.0,meteohub,2013-04-19 00:32:00,
2013-04-18 20:37:00,72.9,67.1,29.99,East,82,0.0,1.0,82,0.00,,,0.00,0.0,meteohub,2013-04-19 00:37:00,
2013-04-18 20:42:00,72.7,66.9,29.99,East,82,0.0,1.0,82,0.00,,,0.00,0.0,meteohub,2013-04-19 00:42:00,
2013-04-18 20:47:00,72.5,67.1,29.99,East,82,0.0,1.0,83,0.00,,,0.00,0.0,meteohub,2013-04-19 00:47:00,
2013-04-18 20:52:00,72.3,66.9,29.99,East,82,0.0,1.0,83,0.00,,,0.00,0.0,meteohub,2013-04-19 00:52:00,
2013-04-18 20:58:00,72.1,67.1,29.99,East,90,0.0,1.0,84,0.00,,,0.00,0.0,meteohub,2013-04-19 00:58:00,
2013-04-18 21:05:00,72.0,67.3,29.99,East,90,0.0,1.0,85,0.00,,,0.00,0.0,meteohub,2013-04-19 01:05:00,
2013-04-18 21:11:00,71.8,67.1,29.99,East,90,0.0,2.0,85,0.00,,,0.00,0.0,meteohub,2013-04-19 01:11:00,
2013-04-18 21:17:00,71.4,66.7,29.99,East,90,0.0,1.0,85,0.00,,,0.00,0.0,meteohub,2013-04-19 01:17:00,
2013-04-18 21:22:00,71.2,66.9,29.99,East,90,0.0,1.0,86,0.00,,,0.00,0.0,meteohub,2013-04-19 01:22:00,
2013-04-18 21:27:00,71.2,66.9,30.00,East,90,0.0,1.0,86,0.00,,,0.00,0.0,meteohub,2013-04-19 01:27:00,
2013-04-18 21:32:00,71.1,66.7,30.00,East,90,0.0,1.0,86,0.00,,,0.00,0.0,meteohub,2013-04-19 01:32:00,
2013-04-18 21:39:00,70.9,66.7,30.00,East,90,0.0,1.0,87,0.00,,,0.00,0.0,meteohub,2013-04-19 01:39:00,
2013-04-18 21:45:00,70.5,66.4,30.01,East,90,0.0,0.0,87,0.00,,,0.00,0.0,meteohub,2013-04-19 01:45:00,
2013-04-18 21:51:00,70.5,66.4,30.01,East,90,0.0,0.0,87,0.00,,,0.00,0.0,meteohub,2013-04-19 01:51:00,
2013-04-18 21:57:00,70.3,66.2,30.01,East,90,0.0,0.0,87,0.00,,,0.00,0.0,meteohub,2013-04-19 01:57:00,
2013-04-18 22:02:00,70.2,66.0,30.01,East,90,0.0,0.0,87,0.00,,,0.00,0.0,meteohub,2013-04-19 02:02:00,
2013-04-18 22:07:00,70.2,66.0,30.01,East,90,0.0,0.0,87,0.00,,,0.00,0.0,meteohub,2013-04-19 02:07:00,
2013-04-18 22:12:00,70.0,66.0,30.01,East,90,0.0,0.0,87,0.00,,,0.00,0.0,meteohub,2013-04-19 02:12:00,
2013-04-18 22:17:00,69.8,65.8,30.01,East,90,0.0,0.0,87,0.00,,,0.00,0.0,meteohub,2013-04-19 02:17:00,
2013-04-18 22:22:00,69.6,65.8,30.01,East,90,0.0,0.0,88,0.00,,,0.00,0.0,meteohub,2013-04-19 02:22:00,
2013-04-18 22:27:00,69.6,65.8,30.01,East,90,0.0,0.0,88,0.00,,,0.00,0.0,meteohub,2013-04-19 02:27:00,
2013-04-18 22:32:00,69.4,65.7,30.01,East,90,0.0,0.0,88,0.00,,,0.00,0.0,meteohub,2013-04-19 02:32:00,
2013-04-18 22:37:00,69.4,66.0,30.01,East,90,0.0,0.0,89,0.00,,,0.00,0.0,meteohub,2013-04-19 02:37:00,
2013-04-18 22:42:00,69.3,65.8,30.01,East,90,0.0,0.0,89,0.00,,,0.00,0.0,meteohub,2013-04-19 02:42:00,
2013-04-18 22:47:00,69.1,65.7,30.01,East,90,0.0,0.0,89,0.00,,,0.00,0.0,meteohub,2013-04-19 02:47:00,
2013-04-18 22:52:00,68.9,65.5,30.01,East,90,0.0,0.0,89,0.00,,,0.00,0.0,meteohub,2013-04-19 02:52:00,
2013-04-18 22:59:00,68.7,65.3,30.01,East,90,0.0,0.0,89,0.00,,,0.00,0.0,meteohub,2013-04-19 02:59:00,
2013-04-18 23:05:00,68.5,65.5,30.00,East,90,0.0,0.0,90,0.00,,,0.00,0.0,meteohub,2013-04-19 03:05:00,
2013-04-18 23:11:00,68.5,65.5,30.00,East,90,0.0,0.0,90,0.00,,,0.00,0.0,meteohub,2013-04-19 03:11:00,
2013-04-18 23:17:00,68.4,65.3,30.01,East,90,0.0,0.0,90,0.00,,,0.00,0.0,meteohub,2013-04-19 03:17:00,
2013-04-18 23:22:00,68.2,65.1,30.00,East,90,0.0,0.0,90,0.00,,,0.00,0.0,meteohub,2013-04-19 03:22:00,
2013-04-18 23:27:00,68.2,65.1,30.00,East,90,0.0,0.0,90,0.00,,,0.00,0.0,meteohub,2013-04-19 03:27:00,
2013-04-18 23:32:00,68.2,65.5,30.00,East,90,0.0,0.0,91,0.00,,,0.00,0.0,meteohub,2013-04-19 03:32:00,
2013-04-18 23:39:00,68.0,65.3,30.00,East,90,0.0,0.0,91,0.00,,,0.00,0.0,meteohub,2013-04-19 03:39:00,
2013-04-18 23:45:00,67.8,65.1,30.00,East,90,0.0,0.0,91,0.00,,,0.00,0.0,meteohub,2013-04-19 03:45:00,
2013-04-18 23:51:00,67.8,65.5,30.00,East,90,0.0,0.0,92,0.00,,,0.00,0.0,meteohub,2013-04-19 03:51:00,
2013-04-18 23:57:00,67.6,65.3,30.00,East,90,0.0,0.0,92,0.00,,,0.00,0.0,meteohub,2013-04-19 03:57:00,